Regional Weather Roundup
Issued by NWS Grand Forks, ND

Home | Current Version | Previous Version | Text Only | Print | Product List | Glossary On
Versions: 1 2 3 4 5 6 7 8 9 10 11 12 13 14 15 16 17 18 19 20 21 22 23 24 25 26 27 28 29 30 31 32 33 34 35 36 37 38 39 40 41 42 43 44 45 46 47 48 49 50
000
ASUS43 KFGF 190231
RWRFGF
PRAIRIE TO PINES  WEATHER ROUNDUP
NATIONAL WEATHER SERVICE EASTERN NORTH DAKOTA/GRAND FORKS ND
900 PM CDT FRI APR 18 2014

 **SATELLITE DATA USED TO AUGMENT SKY COVER AT AUTOMATED STATIONS**
 *****  WEATHER ACROSS EASTERN NORTH DAKOTA  *****

CITY           SKY/WX    TMP DP  RH WIND       PRES   REMARKS
GRAND FORKS    CLOUDY    46  28  49 SE26G40   29.96F
GRAND FRKS AFB CLOUDY    45  29  53 SE21G29   29.95F
GRAND FRKS NWS   N/A     45 N/A N/A SE33        N/A
DEVILS LAKE    MOCLDY    43  27  52 SE24G31   29.81F
FARGO          CLOUDY    44  28  53 SE29G39   29.95F
WAHPETON ARPT  CLOUDY    45  30  57 SE29G38   29.96F
$$

 ***** WEATHER ACROSS CENTRAL AND WESTERN NORTH DAKOTA  *****

CITY           SKY/WX    TMP DP  RH WIND       PRES   REMARKS
BISMARCK       MOCLDY    50  39  66 E18       29.61F
MINOT          CLOUDY    46  33  60 E22G28    29.72F
JAMESTOWN      MOCLDY    45  35  68 SE29G38   29.77F
MINOT AFB      CLOUDY    45  35  66 SE12      29.73S
GARRISON         N/A     46  36  68 E20       29.67F
WILLISTON      MOCLDY    45  43  93 W6        29.65F
DICKINSON      LGT RAIN  50  41  71 NW25G35   29.64R
HETTINGER      CLOUDY    53  40  61 NW17G30   29.64R
$$

 *****  OTHER AIRPORT OBSERVATIONS IN OUR AREA  *****

CITY           SKY/WX    TMP DP  RH WIND       PRES   REMARKS
WALHALLA         N/A     43  32  65 SE22G32   29.94F
GRAFTON AIRPOR MOCLDY    45  32  61 SE16G23   29.96F
VALLEY CITY AR MOCLDY    43  32  65 SE30G41   29.84F
CANDO          CLOUDY    41  28  60 SE26G38   29.82F
CAVALIER APRT  FAIR      43  32  65 E17G26    29.96F
GWINNER        CLEAR     46  36  66 SE33G40   29.85F
SHEYENNE NWR     N/A     45  32  59 SE26      29.95S
ROLLA          CLOUDY    39  32  75 SE24G35   29.83S
 ***** THE ABOVE OBSERVATIONS ARE NON NWS ARE NOT QUALITY
       CONTROLLED AND MAY MIS-REPORT RAIN FOR SNOW...
$$

  *****  WEATHER ACROSS NORTHERN MINNESOTA  *****

CITY           SKY/WX    TMP DP  RH WIND       PRES   REMARKS
FLAG ISLAND    CLOUDY    39  18  41 E14G21    30.15S
WARROAD        CLOUDY    39  27  60 E12       30.14S
ROSEAU         CLOUDY    46  19  34 SE15G22   30.11S
HALLOCK        CLOUDY    46  25  42 SE21G30   30.00F
THF RVR FALLS  CLOUDY    45  23  42 E23G30    30.04F
BAUDETTE       CLOUDY    42  17  36 SE14      30.16S
WASKISH        CLOUDY    43  19  39 E17G23    30.17R
CROOKSTON      CLOUDY    45  27  49 SE23G31   30.00F
$$
  *****  WEATHER ACROSS CENTRAL AND WEST MINNESOTA  *****

CITY           SKY/WX    TMP DP  RH WIND       PRES   REMARKS
FOSSTON        CLOUDY    39  21  48 E20G28    30.06F
BEMIDJI        CLOUDY    41  20  42 SE20G29   30.14F
PARK RAPIDS    CLOUDY    41  23  48 SE13G21   30.14F
ELBOW LAKE     FAIR      43  30  60 E22G37    30.02R
WADENA         CLOUDY    39  27  60 E20       30.11F
DETROIT LAKES  CLOUDY    41  28  60 SE24G32   30.05S
MOORHEAD       CLOUDY    45  30  57 SE24G32   29.96F
FERGUS FALLS   CLOUDY    43  27  52 SE26G36   29.99F
MORRIS MN      CLOUDY    45  34  65 SE30G37   30.00S
STAPLES        MOCLDY    39  23  52 E14       30.14F
$$
  *****  WEATHER ELSEWHERE ACROSS MINNESOTA  *****

CITY           SKY/WX    TMP DP  RH WIND       PRES   REMARKS
DULUTH         CLOUDY    34  22  61 E15       30.29S WCI  24
INTRNTL FALLS  MOCLDY    40  14  34 SE10      30.22S
ELY            MOCLDY    32  21  64 SE8       30.30F WCI  25
CLOQUET        CLOUDY    34  23  64 E12       30.28S
WHEATON        CLOUDY    46  37  71 E32G39    29.97F
BRAINERD       CLOUDY    45  22  40 SE9G17    30.21S
HIBBING        CLOUDY    37  16  42 SE13      30.27S
ALEXANDRIA     CLOUDY    40  29  64 E18G30    30.08F
SAINT CLOUD    MOCLDY    41  25  53 E8        30.19R
MINNEAPOLIS    MOCLDY    48  28  46 E13       30.20F
$$

  *****  WEATHER ACROSS SOUTH DAKOTA  *****

CITY           SKY/WX    TMP DP  RH WIND       PRES   REMARKS
SIOUX FALLS    CLOUDY    60  37  42 S23G32    29.94F
BROOKINGS      NOT AVBL
WATERTOWN      CLOUDY    55  38  52 SE16G26   29.90R
HURON          CLOUDY    64  40  41 S17G25    29.78S
SISSETON         N/A     46  37  71 S24G35    29.93S
ABERDEEN       PTCLDY    56  38  50 SE20G26   29.76F
MITCHELL       CLOUDY    64  41  42 S23G32    29.83F
PIERRE         MOCLDY    66  40  38 SE12      29.62S
MOBRIDGE       CLOUDY    64  39  39 S24       29.54S
RAPID CITY     CLOUDY    68  35  29 NW13      29.62R
$$

  *****  SOME WEATHER IN NEARBY STATES *****

CITY           SKY/WX    TMP DP  RH WIND       PRES   REMARKS
GLASGOW MT     MOCLDY    43  37  79 NW13      29.72S
GREAT FALLS MT MOCLDY    44  17  33 W22G31    29.79R
CHEYENNE WY    CLOUDY    63  28  26 S10       29.89S
SCOTTSBLUFF NE CLOUDY    71  30  21 S12       29.75R
OMAHA NE       CLOUDY    63  39  41 S14       30.08R
DES MOINES IA  PTCLDY    59  34  39 SE10      30.18R
DAVENPORT IA   CLEAR     51  30  44 E9        30.28S
CHICAGO IL     CLEAR     38  26  62 NE10      30.37R
EAU CLAIRE WI  CLEAR     46  25  43 E12       30.28R
LA CROSSE WI   CLEAR     51  26  37 E3        30.27S
$$

  *****  SOME NATIONAL WEATHER *****

CITY           SKY/WX    TMP DP  RH WIND       PRES   REMARKS
LA GUARDIA NY  CLOUDY    42  31  64 S7        30.30F
RALEIGH NC     LGT RAIN  52  45  77 CALM      30.28R
ATLANTA GA     LGT RAIN  50  47  89 N18       30.16S
NEW ORLEANS LA PTCLDY    64  56  75 NE12      30.10R
OKLAHOMA CITY  PTCLDY    58  42  55 SE7       30.12R
ALBUQUERQUE NM CLOUDY    71  21  15 S21       30.01R
SALT LAKE CITY MOCLDY    59  43  55 NW7       29.91F
LOS ANGELES CA MOCLDY    64  53  67 W10       29.89S
BOISE ID       CLEAR     59  20  22 N9        29.95F
SEATTLE WA     MOCLDY    56  33  42 E6        30.03F
$$

*** WEATHER ACROSS MANITOBA...SASKATCHEWAN AND ONTARIO ***
                ***ONTARIO***

CITY           SKY/WX    TMP DP  RH WIND       PRES   REMARKS
GERALDTON      PTCLDY    27  16  63 CALM      30.38R
THUNDER BAY    PTCLDY    32  25  74 VRB2      30.40R
SIOUX LOOKOUT  PTCLDY    37   7  28 SE3       30.28S
TORONTO        PTCLDY    41  32  70 NW13      30.28R
BIG TROUT LK   CLEAR     30  10  43 E6        30.37R WCI  24
PICKLE LAKE    PTCLDY    36   7  30 S7        30.33R
DRYDEN         PTCLDY    36  12  38 SE7       30.26R
KENORA         PTCLDY    39  14  35 SE12G17   30.20S
$$
                *** MANITOBA***

CITY           SKY/WX    TMP DP  RH WIND       PRES   REMARKS
BRANDON        LGT RAIN  41  28  60 E22       29.87F
DAUPHIN        LGT SNOW  34  32  93 SE20G30   29.92F WCI  22
ISLAND LAKE    MOCLDY    34  14  44 E3        30.25F
PILOT MOUND      N/A     39  32  75 SE25G31     N/A
THE PAS        CLOUDY    36  16  44 SE12G17   30.08S
THOMPSON       PTCLDY    36   9  32 SE6       30.23R
WINNIPEG       LGT RAIN  45  19  36 E24G40    30.07S
LYNN LAKE      CLEAR     34   5  29 SE6       30.13S
CHURCHILL      CLEAR     18  12  79 S10       30.37F WCI   6
GILLAM         CLEAR     30  18  59 NE3       30.32S
$$
                ***SASKATCHEWAN***

CITY           SKY/WX    TMP DP  RH WIND       PRES   REMARKS
ESTEVAN        LGT RAIN  41  39  93 E14       29.64
KINDERSLEY     CLOUDY    37  37 100 NE9       29.60R
LLOYDMINSTER   CLOUDY    32  30  93 E8        29.73R WCI  25
PRINCE ALBERT  LGT SNOW  30  28  93 E22G35    29.83F FOG     WCI  17
REGINA         LGT RAIN  37  36  93 SE13G20   29.65S
YORKTON        LGT SNOW  32  30  93 E18G24    29.81F VSB 1   WCI  20
N. BATTLEFORD  CLOUDY    32  30  93 E23       29.72S WCI  19
LA RONGE       CLOUDY    36  19  51 E18G25    29.96R
SASKATOON      LGT SNOW  32  32 100 E13G20    29.71F WCI  22
SWIFT CURRENT  PTCLDY    43  39  87 MISG      29.56R
$$
NOTE: THESE ARE AUTOMATED STATIONS WITH LIMITED QUALITY CONTROL
      "FAIR" INDICATES FEW OR NO CLOUDS BELOW 12,000 FEET WITH NO
      SIGNIFICANT WEATHER AND/OR OBSTRUCTIONS TO VISIBILITY.
      SKY/WX - SKY CONDITION AND SIGNIFICANT WEATHER.
      TMP - AIR TEMPERATURE.    DP   - DEWPOINT TEMPERATURE.
      RH  - RELATIVE HUMIDITY.  PRES - PRESSURE.
      HX  - HEAT INDEX.         WCI  - WIND CHILL INDEX.
$



USA.gov is the U.S. government's official web portal to all federal, state and local government web resources and services.